Flag for Uruguay Weather past 2 weeks in Minas, Uruguay

Now
75 °F

Thunderstorms. Overcast.


Feels Like: 77 °F
Forecast: N/A
Wind: 7 mph from West

Location: Capitan Corbeta

Current Time: Jan 27, 2015 at 6:08:40 PM

Latest Report: Jan 27, 2015 at 5:00 PM


Visibility: 5 mi

Pressure: 29.77 "Hg

Humidity: 74%

Dew point: 66 °F

Location of MinasLocation

Historic Weather in Minas — Graph

°F

Minas temperature yesterday

Maximum temperature yesterday: 86 °F (at 1:00 PM)
Minimum temperature yesterday: 68 °F (at 3:00 AM)
Average temperature yesterday: 77 °F

Past Weeks' High & Low Weather Summary

 TemperatureHumidityPressure
High95 °F (Jan 27, 2:00 PM)94% (Jan 13, 7:00 AM)30.24 "Hg (Jan 13, 7:00 AM)
Low54 °F (Jan 21, 6:00 AM)39% (Jan 18, 4:00 PM)29.65 "Hg (Jan 13, 7:00 PM)
Average72 °F72%29.94 "Hg
* Reported Jan 12 5:00 PM — Jan 27 5:00 PM, Minas, Weather by CustomWeather, © 2014

Note: Actual official high and low records may vary slightly from our data, if they occured in-between our weather recording intervals... More about our weather records

Advertising

Minas weather history for previous 24 hours

 ConditionsComfort  
Time TempWeatherWind HumidityBarometerVisibility
5:00 PM
Jan 27
75 °FThunderstorms. Overcast.7 mph74%29.77 "Hg5 mi
4:00 PM77 °FThunderstorms. Overcast.17 mph65%29.74 "Hg3 mi
3:00 PM88 °FRain. Broken clouds.8 mph62%29.71 "HgN/A
2:00 PM95 °FScattered clouds.N/A39%29.74 "HgN/A
1:00 PM93 °FScattered clouds.10 mph47%29.74 "HgN/A
12:00 PM90 °FPartly sunny.12 mph46%29.77 "HgN/A
11:00 AM88 °FSunny.10 mph55%29.77 "Hg10 mi
10:00 AM81 °FSunny.8 mph54%29.77 "Hg10 mi
9:00 AM77 °FScattered clouds.5 mph61%29.80 "HgN/A
8:00 AM73 °FSunny.5 mph65%29.77 "Hg10 mi
7:00 AM72 °FSunny.6 mph69%29.77 "Hg10 mi
2:00 AM77 °FClear.6 mph74%29.77 "Hg10 mi
1:00 AM75 °FClear.8 mph83%29.77 "Hg10 mi
12:00 AM73 °FClear.12 mph89%29.74 "Hg10 mi
11:00 PM
Jan 26
73 °FClear.3 mph78%29.77 "Hg10 mi
10:00 PM75 °FClear.8 mph74%29.77 "Hg10 mi
9:00 PM77 °FPassing clouds.7 mph69%29.80 "HgN/A
8:00 PM82 °FPartly sunny.6 mph62%29.80 "HgN/A
7:00 PM82 °FPartly sunny.9 mph58%29.80 "HgN/A
6:00 PM86 °FBroken clouds.12 mph52%29.80 "HgN/A
Weather by CustomWeather, © 2014

See weather overviewHow to use our weather pages